| time (UTC) | temp F | wind direction | speed MPH | gust MPH | rain 1hr in | rain 24hr in | rain mn in | humidity % | barometer mb |
| 20260905163037 | 93 | 355 | 5.0 | 10.0 | 0.00 | 0.00 | 0.00 | 57 | 1013.4 |
| 20260905162744 | 93 | 23 | 5.0 | 10.0 | 0.00 | 0.00 | 0.00 | 59 | 1016.5 |
| 20260905162227 | 93 | 27 | 4.0 | 10.0 | 0.00 | 0.00 | 0.00 | 58 | 1016.5 |
| 20260905161735 | 93 | 350 | 7.0 | 9.0 | 0.00 | 0.00 | 0.00 | 58 | 1016.5 |
| 20260905161546 | 93 | 355 | 6.0 | 9.0 | 0.00 | 0.00 | 0.00 | 60 | 1013.5 |
| 20260905161248 | 93 | 19 | 6.0 | 8.0 | 0.00 | 0.00 | 0.00 | 60 | 1016.4 |
| 20260905160730 | 93 | 360 | 4.0 | 8.0 | 0.00 | 0.00 | 0.00 | 60 | 1016.3 |
| 20260905160242 | 93 | 360 | 5.0 | 6.0 | 0.00 | 0.00 | 0.00 | 60 | 1016.3 |
| 20260905160049 | 92 | 10 | 4.0 | 6.0 | 0.00 | 0.00 | 0.00 | 61 | 1013.2 |
| 20260905155727 | 93 | 351 | 4.0 | 7.0 | 0.00 | 0.00 | 0.00 | 60 | 1016.2 |
| 20260905155238 | 93 | 11 | 2.0 | 5.0 | 0.00 | 0.00 | 0.00 | 61 | 1016.1 |
| 20260905154722 | 93 | 19 | 3.0 | 6.0 | 0.00 | 0.00 | 0.00 | 60 | 1016.1 |
| 20260905154555 | 92 | 24 | 3.0 | 6.0 | 0.00 | 0.00 | 0.00 | 59 | 1013.1 |
| 20260905154235 | 92 | 355 | 4.0 | 6.0 | 0.00 | 0.00 | 0.00 | 60 | 1016.1 |
| 20260905153742 | 92 | 155 | 3.0 | 5.0 | 0.00 | 0.00 | 0.00 | 60 | 1016.3 |
| 20260905153225 | 92 | 155 | 2.0 | 3.0 | 0.00 | 0.00 | 0.00 | 57 | 1016.1 |
| 20260905153055 | 92 | 155 | 0.0 | 5.0 | 0.00 | 0.00 | 0.00 | 57 | 1013.0 |
| 20260905152738 | 92 | 155 | 1.0 | 6.0 | 0.00 | 0.00 | 0.00 | 59 | 1016.0 |
| 20260905152221 | 92 | 155 | 3.0 | 6.0 | 0.00 | 0.00 | 0.00 | 60 | 1016.0 |
| 20260905151732 | 92 | 155 | 2.0 | 5.0 | 0.00 | 0.00 | 0.00 | 61 | 1016.0 |
| 20260905151555 | 91 | 155 | 2.0 | 5.0 | 0.00 | 0.00 | 0.00 | 61 | 1012.9 |
| 20260905151245 | 91 | 155 | 2.0 | 5.0 | 0.00 | 0.00 | 0.00 | 60 | 1016.1 |
| 20260905150755 | 91 | 155 | 1.0 | 3.0 | 0.00 | 0.00 | 0.00 | 61 | 1016.1 |
| 20260905150243 | 91 | 155 | 1.0 | 3.0 | 0.00 | 0.00 | 0.00 | 63 | 1016.0 |
| 20260905145736 | 90 | 155 | 1.0 | 3.0 | 0.00 | 0.00 | 0.00 | 61 | 1015.9 |
| 20260905145246 | 90 | 155 | 1.0 | 5.0 | 0.00 | 0.00 | 0.00 | 60 | 1015.6 |
| 20260905144728 | 90 | 155 | 2.0 | 5.0 | 0.00 | 0.00 | 0.00 | 62 | 1015.5 |
| 20260905144557 | 89 | 155 | 3.0 | 7.0 | 0.00 | 0.00 | 0.00 | 61 | 1012.4 |
| 20260905144242 | 89 | 139 | 2.0 | 7.0 | 0.00 | 0.00 | 0.00 | 64 | 1015.4 |
| 20260905143751 | 89 | 153 | 4.0 | 8.0 | 0.00 | 0.00 | 0.00 | 65 | 1015.4 |
| 20260905143233 | 88 | 134 | 3.0 | 8.0 | 0.00 | 0.00 | 0.00 | 66 | 1015.3 |
| 20260905143003 | 87 | 134 | 5.0 | 8.0 | 0.00 | 0.00 | 0.00 | 65 | 1012.2 |
| 20260905142741 | 88 | 148 | 4.0 | 10.0 | 0.00 | 0.00 | 0.00 | 66 | 1015.1 |
| 20260905142223 | 87 | 169 | 5.0 | 10.0 | 0.00 | 0.00 | 0.00 | 66 | 1015.0 |
| 20260905141734 | 87 | 145 | 5.0 | 9.0 | 0.00 | 0.00 | 0.00 | 66 | 1015.0 |
| 20260905141509 | 86 | 157 | 5.0 | 9.0 | 0.00 | 0.00 | 0.00 | 67 | 1012.1 |
| 20260905141307 | 86 | 149 | 5.0 | 9.0 | 0.00 | 0.00 | 0.00 | 68 | 1015.0 |
| 20260905140726 | 86 | 134 | 5.0 | 8.0 | 0.00 | 0.00 | 0.00 | 68 | 1015.0 |
| 20260905140236 | 85 | 112 | 5.0 | 8.0 | 0.00 | 0.00 | 0.00 | 70 | 1015.1 |
| 20260905140038 | 84 | 146 | 3.0 | 5.0 | 0.00 | 0.00 | 0.00 | 71 | 1012.2 |
| 20260905135748 | 85 | 146 | 3.0 | 4.0 | 0.00 | 0.00 | 0.00 | 71 | 1015.2 |
| 20260905135232 | 84 | 146 | 3.0 | 5.0 | 0.00 | 0.00 | 0.00 | 72 | 1015.3 |
| 20260905134739 | 83 | 146 | 3.0 | 5.0 | 0.00 | 0.00 | 0.00 | 73 | 1015.3 |
| 20260905134540 | 82 | 146 | 3.0 | 5.0 | 0.00 | 0.00 | 0.00 | 73 | 1012.3 |
| 20260905134251 | 82 | 146 | 3.0 | 4.0 | 0.00 | 0.00 | 0.00 | 74 | 1015.2 |
| 20260905133734 | 82 | 146 | 2.0 | 4.0 | 0.00 | 0.00 | 0.00 | 77 | 1015.2 |
| 20260905133244 | 81 | 146 | 2.0 | 4.0 | 0.00 | 0.00 | 0.00 | 78 | 1015.1 |
| 20260905133036 | 80 | 146 | 2.0 | 4.0 | 0.00 | 0.00 | 0.00 | 78 | 1012.1 |
| 20260905132726 | 80 | 146 | 3.0 | 4.0 | 0.00 | 0.00 | 0.00 | 78 | 1015.0 |
| 20260905132237 | 80 | 146 | 2.0 | 5.0 | 0.00 | 0.00 | 0.00 | 80 | 1014.8 |
| 20260905131723 | 79 | 146 | 3.0 | 5.0 | 0.00 | 0.00 | 0.00 | 80 | 1014.7 |
| 20260905131547 | 79 | 146 | 3.0 | 5.0 | 0.00 | 0.00 | 0.00 | 80 | 1011.9 |
| 20260905131236 | 79 | 146 | 3.0 | 5.0 | 0.00 | 0.00 | 0.00 | 80 | 1014.6 |
| 20260905130741 | 78 | 146 | 3.0 | 5.0 | 0.00 | 0.00 | 0.00 | 81 | 1014.7 |
| 20260905130225 | 78 | 146 | 3.0 | 4.0 | 0.00 | 0.00 | 0.00 | 81 | 1014.7 |
| 20260905130042 | 77 | 146 | 2.0 | 4.0 | 0.00 | 0.00 | 0.00 | 81 | 1011.8 |
| 20260905125736 | 77 | 146 | 3.0 | 4.0 | 0.00 | 0.00 | 0.00 | 82 | 1014.7 |
| 20260905125307 | 77 | 146 | 2.0 | 4.0 | 0.00 | 0.00 | 0.00 | 82 | 1014.6 |
| 20260905124731 | 77 | 146 | 2.0 | 5.0 | 0.00 | 0.00 | 0.00 | 81 | 1014.5 |
| 20260905124534 | 76 | 146 | 2.0 | 5.0 | 0.00 | 0.00 | 0.00 | 81 | 1011.5 |
| 20260905124243 | 77 | 146 | 3.0 | 5.0 | 0.00 | 0.00 | 0.00 | 81 | 1014.3 |
| 20260905123753 | 77 | 146 | 3.0 | 4.0 | 0.00 | 0.00 | 0.00 | 81 | 1014.3 |
| 20260905123241 | 76 | 146 | 2.0 | 4.0 | 0.00 | 0.00 | 0.00 | 81 | 1014.2 |
| 20260905123012 | 76 | 146 | 2.0 | 4.0 | 0.00 | 0.00 | 0.00 | 81 | 1011.3 |
| 20260905122724 | 76 | 146 | 2.0 | 5.0 | 0.00 | 0.00 | 0.00 | 81 | 1014.2 |
| 20260905122235 | 76 | 146 | 3.0 | 5.0 | 0.00 | 0.00 | 0.00 | 81 | 1014.0 |
| 20260905121747 | 76 | 146 | 3.0 | 5.0 | 0.00 | 0.00 | 0.00 | 81 | 1014.0 |
| 20260905121512 | 76 | 146 | 3.0 | 5.0 | 0.00 | 0.00 | 0.00 | 81 | 1011.1 |
| 20260905121229 | 76 | 146 | 4.0 | 4.0 | 0.00 | 0.00 | 0.00 | 81 | 1014.1 |
| 20260905120739 | 76 | 146 | 3.0 | 4.0 | 0.00 | 0.00 | 0.00 | 81 | 1014.1 |
| 20260905120250 | 76 | 146 | 3.0 | 4.0 | 0.00 | 0.00 | 0.00 | 80 | 1014.1 |
| 20260905120056 | 76 | 146 | 2.0 | 3.0 | 0.00 | 0.00 | 0.00 | 80 | 1011.1 |
| 20260905115736 | 76 | 146 | 3.0 | 3.0 | 0.00 | 0.00 | 0.00 | 80 | 1014.0 |
| 20260905115248 | 76 | 146 | 2.0 | 3.0 | 0.00 | 0.00 | 0.00 | 80 | 1014.0 |
| 20260905114730 | 76 | 146 | 2.0 | 5.0 | 0.00 | 0.00 | 0.00 | 80 | 1014.0 |
| 20260905114557 | 76 | 146 | 2.0 | 7.0 | 0.00 | 0.00 | 0.00 | 80 | 1011.2 |
| 20260905114243 | 76 | 146 | 2.0 | 7.0 | 0.00 | 0.00 | 0.00 | 80 | 1014.0 |
| 20260905113723 | 76 | 146 | 2.0 | 5.0 | 0.00 | 0.00 | 0.00 | 79 | 1014.0 |
| 20260905113255 | 77 | 146 | 3.0 | 5.0 | 0.00 | 0.00 | 0.00 | 79 | 1013.9 |
| 20260905113039 | 76 | 146 | 3.0 | 5.0 | 0.00 | 0.00 | 0.00 | 79 | 1010.9 |
| 20260905112746 | 77 | 157 | 3.0 | 5.0 | 0.00 | 0.00 | 0.00 | 79 | 1013.9 |
| 20260905112228 | 77 | 163 | 3.0 | 6.0 | 0.00 | 0.00 | 0.00 | 79 | 1013.8 |
| 20260905111735 | 77 | 169 | 4.0 | 6.0 | 0.00 | 0.00 | 0.00 | 79 | 1013.8 |
| 20260905111614 | 76 | 172 | 3.0 | 5.0 | 0.00 | 0.00 | 0.00 | 79 | 1010.9 |
| 20260905111249 | 77 | 200 | 3.0 | 5.0 | 0.00 | 0.00 | 0.00 | 79 | 1013.9 |
| 20260905110729 | 77 | 200 | 3.0 | 5.0 | 0.00 | 0.00 | 0.00 | 79 | 1013.9 |
| 20260905110241 | 77 | 174 | 4.0 | 6.0 | 0.00 | 0.00 | 0.00 | 79 | 1013.8 |
| 20260905110042 | 76 | 174 | 4.0 | 6.0 | 0.00 | 0.00 | 0.00 | 79 | 1010.9 |
| 20260905105723 | 77 | 198 | 3.0 | 4.0 | 0.00 | 0.00 | 0.00 | 79 | 1013.8 |
| 20260905105235 | 77 | 197 | 3.0 | 5.0 | 0.00 | 0.00 | 0.00 | 79 | 1013.9 |
| 20260905104746 | 77 | 178 | 4.0 | 5.0 | 0.00 | 0.00 | 0.00 | 78 | 1013.8 |
| 20260905104542 | 77 | 196 | 3.0 | 5.0 | 0.00 | 0.00 | 0.00 | 78 | 1010.9 |
| 20260905104230 | 77 | 198 | 4.0 | 6.0 | 0.00 | 0.00 | 0.00 | 78 | 1013.8 |
| 20260905103736 | 77 | 172 | 3.0 | 6.0 | 0.00 | 0.00 | 0.00 | 78 | 1013.7 |
| 20260905103247 | 77 | 204 | 3.0 | 6.0 | 0.00 | 0.00 | 0.00 | 78 | 1013.5 |
| 20260905103044 | 77 | 204 | 3.0 | 7.0 | 0.00 | 0.00 | 0.00 | 78 | 1010.6 |
| 20260905102730 | 77 | 203 | 3.0 | 7.0 | 0.00 | 0.00 | 0.00 | 78 | 1013.4 |
| 20260905102241 | 77 | 206 | 5.0 | 7.0 | 0.00 | 0.00 | 0.00 | 78 | 1013.4 |
| 20260905101723 | 77 | 202 | 3.0 | 5.0 | 0.00 | 0.00 | 0.00 | 78 | 1013.4 |
| 20260905101552 | 77 | 202 | 3.0 | 5.0 | 0.00 | 0.00 | 0.00 | 78 | 1010.5 |
| 20260905101236 | 77 | 202 | 3.0 | 7.0 | 0.00 | 0.00 | 0.00 | 78 | 1013.4 |
| 20260905100747 | 77 | 202 | 3.0 | 7.0 | 0.00 | 0.00 | 0.00 | 78 | 1013.4 |
| 20260905100234 | 78 | 202 | 4.0 | 9.0 | 0.00 | 0.00 | 0.00 | 78 | 1013.3 |
| 20260905100050 | 77 | 198 | 4.0 | 9.0 | 0.00 | 0.00 | 0.00 | 78 | 1010.4 |
| 20260905095746 | 78 | 198 | 5.0 | 9.0 | 0.00 | 0.00 | 0.00 | 78 | 1013.3 |
| 20260905095236 | 78 | 171 | 5.0 | 8.0 | 0.00 | 0.00 | 0.00 | 78 | 1013.2 |
| 20260905094809 | 77 | 199 | 4.0 | 9.0 | 0.00 | 0.00 | 0.00 | 79 | 1013.2 |
| 20260905094511 | 77 | 202 | 4.0 | 9.0 | 0.00 | 0.00 | 0.00 | 79 | 1010.2 |
| 20260905094234 | 78 | 170 | 5.0 | 9.0 | 0.00 | 0.00 | 0.00 | 79 | 1013.2 |
| 20260905093744 | 78 | 173 | 5.0 | 9.0 | 0.00 | 0.00 | 0.00 | 79 | 1013.1 |
| 20260905093234 | 78 | 155 | 6.0 | 9.0 | 0.00 | 0.00 | 0.00 | 79 | 1013.0 |
| 20260905093059 | 77 | 168 | 5.0 | 9.0 | 0.00 | 0.00 | 0.00 | 79 | 1010.1 |
| 20260905092801 | 78 | 167 | 6.0 | 9.0 | 0.00 | 0.00 | 0.00 | 79 | 1013.0 |
| 20260905092225 | 78 | 190 | 6.0 | 8.0 | 0.00 | 0.00 | 0.00 | 79 | 1013.0 |
| 20260905091756 | 78 | 153 | 5.0 | 8.0 | 0.00 | 0.00 | 0.00 | 79 | 1013.1 |
| 20260905091510 | 77 | 145 | 5.0 | 8.0 | 0.00 | 0.00 | 0.00 | 79 | 1010.2 |
| 20260905091247 | 78 | 155 | 5.0 | 8.0 | 0.00 | 0.00 | 0.00 | 79 | 1013.2 |
| 20260905090727 | 78 | 154 | 5.0 | 9.0 | 0.00 | 0.00 | 0.00 | 79 | 1013.2 |
| 20260905090240 | 78 | 170 | 5.0 | 7.0 | 0.00 | 0.00 | 0.00 | 79 | 1013.2 |
| 20260905090017 | 77 | 157 | 4.0 | 7.0 | 0.00 | 0.00 | 0.00 | 79 | 1010.3 |
| 20260905085723 | 78 | 168 | 4.0 | 7.0 | 0.00 | 0.00 | 0.00 | 79 | 1013.3 |
| 20260905085232 | 78 | 166 | 5.0 | 7.0 | 0.00 | 0.00 | 0.00 | 79 | 1013.3 |
| 20260905084743 | 78 | 163 | 5.0 | 7.0 | 0.00 | 0.00 | 0.00 | 79 | 1013.3 |
| 20260905084520 | 77 | 173 | 5.0 | 7.0 | 0.00 | 0.00 | 0.00 | 79 | 1010.4 |
| 20260905084227 | 78 | 160 | 5.0 | 8.0 | 0.00 | 0.00 | 0.00 | 79 | 1013.3 |
| 20260905083737 | 78 | 169 | 5.0 | 8.0 | 0.00 | 0.00 | 0.00 | 79 | 1013.4 |
| 20260905083249 | 78 | 176 | 6.0 | 8.0 | 0.00 | 0.00 | 0.00 | 79 | 1013.5 |
| 20260905083024 | 77 | 171 | 5.0 | 7.0 | 0.00 | 0.00 | 0.00 | 79 | 1010.6 |
| 20260905082731 | 78 | 173 | 5.0 | 8.0 | 0.00 | 0.00 | 0.00 | 79 | 1013.5 |
| 20260905082244 | 78 | 150 | 5.0 | 8.0 | 0.00 | 0.00 | 0.00 | 79 | 1013.5 |
| 20260905081725 | 78 | 160 | 5.0 | 7.0 | 0.00 | 0.00 | 0.00 | 79 | 1013.6 |
| 20260905081518 | 77 | 165 | 5.0 | 7.0 | 0.00 | 0.00 | 0.00 | 79 | 1010.6 |
| 20260905081235 | 78 | 154 | 5.0 | 7.0 | 0.00 | 0.00 | 0.00 | 79 | 1013.6 |
| 20260905080805 | 78 | 163 | 4.0 | 7.0 | 0.00 | 0.00 | 0.00 | 79 | 1013.7 |
| 20260905080226 | 78 | 159 | 5.0 | 7.0 | 0.00 | 0.00 | 0.00 | 78 | 1013.7 |
| 20260905075757 | 78 | 168 | 4.0 | 6.0 | 0.00 | 0.00 | 0.00 | 78 | 1013.8 |
| 20260905075247 | 78 | 168 | 4.0 | 6.0 | 0.00 | 0.00 | 0.00 | 78 | 1013.8 |
| 20260905074731 | 78 | 168 | 3.0 | 5.0 | 0.00 | 0.00 | 0.00 | 78 | 1013.9 |
| 20260905074544 | 78 | 168 | 3.0 | 5.0 | 0.00 | 0.00 | 0.00 | 78 | 1010.9 |
| 20260905074301 | 78 | 169 | 3.0 | 5.0 | 0.00 | 0.00 | 0.00 | 78 | 1013.9 |
| 20260905073750 | 78 | 168 | 2.0 | 4.0 | 0.00 | 0.00 | 0.00 | 78 | 1013.9 |
| 20260905073232 | 79 | 168 | 2.0 | 4.0 | 0.00 | 0.00 | 0.00 | 77 | 1013.9 |
| 20260905073027 | 78 | 168 | 1.0 | 3.0 | 0.00 | 0.00 | 0.00 | 77 | 1010.9 |
| 20260905072723 | 79 | 168 | 2.0 | 3.0 | 0.00 | 0.00 | 0.00 | 77 | 1013.9 |
| 20260905072254 | 79 | 168 | 2.0 | 6.0 | 0.00 | 0.00 | 0.00 | 77 | 1013.9 |
| 20260905071745 | 79 | 168 | 3.0 | 6.0 | 0.00 | 0.00 | 0.00 | 77 | 1013.9 |
| 20260905071538 | 78 | 168 | 3.0 | 6.0 | 0.00 | 0.00 | 0.00 | 77 | 1010.9 |
| 20260905071229 | 79 | 196 | 3.0 | 5.0 | 0.00 | 0.00 | 0.00 | 77 | 1013.9 |
| 20260905070734 | 79 | 195 | 3.0 | 5.0 | 0.00 | 0.00 | 0.00 | 77 | 1013.9 |
| 20260905070246 | 79 | 182 | 3.0 | 5.0 | 0.00 | 0.00 | 0.00 | 77 | 1013.9 |
| 20260905070045 | 79 | 199 | 3.0 | 5.0 | 0.00 | 0.00 | 0.00 | 77 | 1010.9 |
| 20260905065730 | 79 | 199 | 3.0 | 5.0 | 0.00 | 0.00 | 0.00 | 77 | 1014.0 |
| 20260905065242 | 79 | 192 | 4.0 | 6.0 | 0.00 | 0.00 | 0.00 | 77 | 1014.1 |
| 20260905064727 | 79 | 200 | 4.0 | 6.0 | 0.00 | 0.00 | 0.00 | 77 | 1014.2 |
| 20260905064548 | 79 | 200 | 4.0 | 6.0 | 0.00 | 0.00 | 0.00 | 77 | 1011.1 |
| 20260905064240 | 80 | 198 | 4.0 | 7.0 | 0.00 | 0.00 | 0.00 | 77 | 1014.1 |
| 20260905063723 | 80 | 177 | 5.0 | 7.0 | 0.00 | 0.00 | 0.00 | 77 | 1014.1 |
| 20260905063235 | 80 | 167 | 4.0 | 6.0 | 0.00 | 0.00 | 0.00 | 77 | 1014.1 |
| 20260905063058 | 79 | 169 | 3.0 | 5.0 | 0.00 | 0.00 | 0.00 | 77 | 1011.0 |
| 20260905062743 | 80 | 165 | 4.0 | 5.0 | 0.00 | 0.00 | 0.00 | 77 | 1014.1 |
| 20260905062226 | 80 | 164 | 4.0 | 5.0 | 0.00 | 0.00 | 0.00 | 77 | 1014.1 |
| 20260905061729 | 80 | 164 | 2.0 | 4.0 | 0.00 | 0.00 | 0.00 | 76 | 1014.1 |
| 20260905061524 | 80 | 178 | 3.0 | 4.0 | 0.00 | 0.00 | 0.00 | 76 | 1011.0 |
| 20260905061240 | 81 | 194 | 3.0 | 4.0 | 0.00 | 0.00 | 0.00 | 76 | 1014.1 |
| 20260905060810 | 81 | 172 | 3.0 | 5.0 | 0.00 | 0.00 | 0.00 | 76 | 1014.1 |
| 20260905060233 | 81 | 173 | 3.0 | 5.0 | 0.00 | 0.00 | 0.00 | 76 | 1014.2 |
| 20260905060055 | 80 | 196 | 3.0 | 5.0 | 0.00 | 0.00 | 0.00 | 76 | 1011.0 |
| 20260905055739 | 81 | 196 | 3.0 | 5.0 | 0.00 | 0.00 | 0.00 | 76 | 1014.1 |
| 20260905055223 | 81 | 196 | 4.0 | 5.0 | 0.00 | 0.00 | 0.00 | 75 | 1014.1 |
| 20260905054734 | 81 | 196 | 3.0 | 5.0 | 0.00 | 0.00 | 0.00 | 75 | 1014.1 |
| 20260905054600 | 81 | 196 | 3.0 | 5.0 | 0.00 | 0.00 | 0.00 | 75 | 1011.0 |
| 20260905054247 | 82 | 196 | 3.0 | 5.0 | 0.00 | 0.00 | 0.00 | 75 | 1014.1 |
| 20260905053727 | 82 | 178 | 4.0 | 5.0 | 0.00 | 0.00 | 0.00 | 75 | 1014.1 |
| 20260905053237 | 82 | 184 | 3.0 | 5.0 | 0.00 | 0.00 | 0.00 | 75 | 1014.0 |
| 20260905053005 | 81 | 178 | 3.0 | 5.0 | 0.00 | 0.00 | 0.00 | 75 | 1011.0 |
| 20260905052748 | 82 | 174 | 4.0 | 5.0 | 0.00 | 0.00 | 0.00 | 74 | 1014.0 |
| 20260905052237 | 82 | 173 | 4.0 | 5.0 | 0.00 | 0.00 | 0.00 | 74 | 1013.9 |
| 20260905051745 | 82 | 166 | 4.0 | 6.0 | 0.00 | 0.00 | 0.00 | 74 | 1013.9 |
| 20260905051546 | 82 | 163 | 3.0 | 6.0 | 0.00 | 0.00 | 0.00 | 74 | 1010.8 |
| 20260905051228 | 82 | 171 | 4.0 | 6.0 | 0.00 | 0.00 | 0.00 | 74 | 1013.9 |
| 20260905050736 | 82 | 168 | 4.0 | 8.0 | 0.00 | 0.00 | 0.00 | 74 | 1013.9 |
| 20260905050248 | 82 | 175 | 5.0 | 9.0 | 0.00 | 0.00 | 0.00 | 74 | 1013.9 |
| 20260905050053 | 82 | 157 | 4.0 | 7.0 | 0.00 | 0.00 | 0.00 | 74 | 1010.9 |
| 20260905045752 | 83 | 163 | 5.0 | 10.0 | 0.00 | 0.00 | 0.00 | 74 | 1014.0 |
| 20260905045241 | 83 | 163 | 6.0 | 10.0 | 0.00 | 0.00 | 0.00 | 74 | 1013.9 |
| 20260905044724 | 83 | 176 | 6.0 | 7.0 | 0.00 | 0.00 | 0.00 | 74 | 1013.9 |
| 20260905044538 | 82 | 162 | 5.0 | 8.0 | 0.00 | 0.00 | 0.00 | 74 | 1010.8 |
| 20260905044233 | 83 | 165 | 5.0 | 7.0 | 0.00 | 0.00 | 0.00 | 74 | 1013.8 |
| 20260905043741 | 83 | 163 | 4.0 | 7.0 | 0.00 | 0.00 | 0.00 | 74 | 1013.8 |
| 20260905043223 | 83 | 150 | 4.0 | 7.0 | 0.00 | 0.00 | 0.00 | 73 | 1013.7 |
| 20260905043041 | 83 | 148 | 4.0 | 7.0 | 0.00 | 0.00 | 0.00 | 73 | 1010.6 |
| 20260905042736 | 83 | 169 | 5.0 | 7.0 | 0.00 | 0.00 | 0.00 | 73 | 1013.7 |
| 20260905042248 | 83 | 165 | 3.0 | 5.0 | 0.00 | 0.00 | 0.00 | 73 | 1013.6 |
| 20260905041732 | 83 | 162 | 4.0 | 5.0 | 0.00 | 0.00 | 0.00 | 73 | 1013.6 |
| 20260905041513 | 83 | 169 | 4.0 | 6.0 | 0.00 | 0.00 | 0.00 | 73 | 1010.5 |
| 20260905041305 | 83 | 167 | 4.0 | 6.0 | 0.00 | 0.00 | 0.00 | 73 | 1013.6 |
| 20260905040722 | 84 | 190 | 3.0 | 8.0 | 0.00 | 0.00 | 0.00 | 73 | 1013.6 |
| 20260905040235 | 84 | 159 | 4.0 | 8.0 | 0.00 | 0.00 | 0.00 | 73 | 1013.6 |
| 20260905040053 | 83 | 153 | 4.0 | 8.0 | 0.00 | 0.00 | 0.00 | 73 | 1010.5 |
| 20260905035747 | 84 | 160 | 4.0 | 7.0 | 0.00 | 0.00 | 0.00 | 73 | 1013.5 |
| 20260905035228 | 84 | 194 | 3.0 | 7.0 | 0.00 | 0.00 | 0.00 | 73 | 1013.5 |
| 20260905034801 | 84 | 171 | 3.0 | 6.0 | 0.00 | 0.00 | 0.00 | 73 | 1013.5 |
| 20260905034539 | 84 | 171 | 4.0 | 6.0 | 0.00 | 0.00 | 0.00 | 73 | 1010.4 |
| 20260905034254 | 84 | 165 | 4.0 | 6.0 | 0.00 | 0.00 | 0.00 | 73 | 1013.5 |
| 20260905033743 | 85 | 198 | 3.0 | 6.0 | 0.00 | 0.00 | 0.00 | 73 | 1013.4 |
| 20260905033224 | 85 | 198 | 4.0 | 6.0 | 0.00 | 0.00 | 0.00 | 73 | 1013.4 |
| 20260905033021 | 84 | 198 | 3.0 | 6.0 | 0.00 | 0.00 | 0.00 | 73 | 1010.3 |
| 20260905032737 | 85 | 198 | 4.0 | 6.0 | 0.00 | 0.00 | 0.00 | 73 | 1013.4 |
| 20260905032222 | 85 | 182 | 5.0 | 7.0 | 0.00 | 0.00 | 0.00 | 72 | 1013.3 |
| 20260905031736 | 85 | 167 | 5.0 | 7.0 | 0.00 | 0.00 | 0.00 | 72 | 1013.2 |
| 20260905031533 | 85 | 200 | 5.0 | 7.0 | 0.00 | 0.00 | 0.00 | 72 | 1010.1 |
| 20260905031250 | 86 | 171 | 5.0 | 7.0 | 0.00 | 0.00 | 0.00 | 72 | 1013.2 |
| 20260905030733 | 86 | 186 | 5.0 | 8.0 | 0.00 | 0.00 | 0.00 | 72 | 1013.1 |
| 20260905030245 | 86 | 174 | 6.0 | 8.0 | 0.00 | 0.00 | 0.00 | 72 | 1013.1 |
| 20260905030035 | 86 | 177 | 5.0 | 8.0 | 0.00 | 0.00 | 0.00 | 72 | 1010.0 |
| 20260905025729 | 86 | 177 | 6.0 | 9.0 | 0.00 | 0.00 | 0.00 | 72 | 1013.1 |
| 20260905025258 | 87 | 196 | 5.0 | 8.0 | 0.00 | 0.00 | 0.00 | 72 | 1013.1 |
| 20260905024809 | 87 | 169 | 5.0 | 6.0 | 0.00 | 0.00 | 0.00 | 71 | 1013.1 |
| 20260905024549 | 86 | 167 | 4.0 | 7.0 | 0.00 | 0.00 | 0.00 | 71 | 1010.0 |
| 20260905024234 | 87 | 167 | 5.0 | 5.0 | 0.00 | 0.00 | 0.00 | 71 | 1013.2 |
| 20260905023743 | 87 | 197 | 3.0 | 6.0 | 0.00 | 0.00 | 0.00 | 70 | 1013.1 |
| 20260905023254 | 88 | 149 | 4.0 | 6.0 | 0.00 | 0.00 | 0.00 | 70 | 1013.1 |
| 20260905023015 | 87 | 186 | 4.0 | 6.0 | 0.00 | 0.00 | 0.00 | 70 | 1010.0 |
| 20260905022745 | 88 | 163 | 3.0 | 5.0 | 0.00 | 0.00 | 0.00 | 69 | 1013.0 |
| 20260905022225 | 88 | 163 | 4.0 | 5.0 | 0.00 | 0.00 | 0.00 | 69 | 1013.0 |
| 20260905021735 | 88 | 163 | 3.0 | 6.0 | 0.00 | 0.00 | 0.00 | 69 | 1013.0 |
| 20260905021519 | 88 | 163 | 3.0 | 7.0 | 0.00 | 0.00 | 0.00 | 68 | 1009.9 |
| 20260905021249 | 89 | 163 | 4.0 | 7.0 | 0.00 | 0.00 | 0.00 | 68 | 1012.9 |
| 20260905020731 | 89 | 159 | 4.0 | 7.0 | 0.00 | 0.00 | 0.00 | 68 | 1012.9 |
| 20260905020243 | 89 | 163 | 4.0 | 7.0 | 0.00 | 0.00 | 0.00 | 67 | 1012.8 |
| 20260905020048 | 89 | 164 | 4.0 | 6.0 | 0.00 | 0.00 | 0.00 | 67 | 1009.7 |
| 20260905015725 | 90 | 162 | 5.0 | 7.0 | 0.00 | 0.00 | 0.00 | 67 | 1012.9 |
| 20260905015238 | 90 | 155 | 5.0 | 7.0 | 0.00 | 0.00 | 0.00 | 66 | 1012.8 |
| 20260905014806 | 90 | 198 | 4.0 | 7.0 | 0.00 | 0.00 | 0.00 | 66 | 1012.7 |
| 20260905014513 | 90 | 167 | 4.0 | 6.0 | 0.00 | 0.00 | 0.00 | 65 | 1009.6 |
| 20260905014229 | 91 | 165 | 4.0 | 6.0 | 0.00 | 0.00 | 0.00 | 65 | 1012.7 |
| 20260905013741 | 91 | 158 | 3.0 | 6.0 | 0.00 | 0.00 | 0.00 | 65 | 1012.6 |
| 20260905013223 | 91 | 155 | 4.0 | 7.0 | 0.00 | 0.00 | 0.00 | 64 | 1012.5 |
| 20260905013010 | 91 | 163 | 4.0 | 8.0 | 0.00 | 0.00 | 0.00 | 64 | 1009.3 |
| 20260905012755 | 92 | 146 | 5.0 | 8.0 | 0.00 | 0.00 | 0.00 | 63 | 1012.4 |
| 20260905012248 | 92 | 161 | 5.0 | 8.0 | 0.00 | 0.00 | 0.00 | 63 | 1012.4 |
| 20260905011730 | 92 | 142 | 4.0 | 8.0 | 0.00 | 0.00 | 0.00 | 63 | 1012.4 |
| 20260905011556 | 92 | 150 | 4.0 | 8.0 | 0.00 | 0.00 | 0.00 | 63 | 1009.2 |
| 20260905011225 | 93 | 148 | 4.0 | 7.0 | 0.00 | 0.00 | 0.00 | 62 | 1012.4 |
| 20260905010732 | 93 | 141 | 5.0 | 7.0 | 0.00 | 0.00 | 0.00 | 62 | 1012.4 |
| 20260905010245 | 93 | 137 | 3.0 | 7.0 | 0.00 | 0.00 | 0.00 | 60 | 1012.3 |
| 20260905010024 | 93 | 137 | 4.0 | 7.0 | 0.00 | 0.00 | 0.00 | 60 | 1009.2 |
| 20260905005735 | 94 | 139 | 4.0 | 7.0 | 0.00 | 0.00 | 0.00 | 60 | 1012.3 |
| 20260905005247 | 94 | 200 | 2.0 | 3.0 | 0.00 | 0.00 | 0.00 | 59 | 1012.3 |
| 20260905004732 | 94 | 200 | 1.0 | 2.0 | 0.00 | 0.00 | 0.00 | 59 | 1012.2 |
| 20260905004543 | 94 | 200 | 1.0 | 2.0 | 0.00 | 0.00 | 0.00 | 58 | 1009.2 |
| 20260905004247 | 95 | 200 | 1.0 | 3.0 | 0.00 | 0.00 | 0.00 | 58 | 1012.3 |
| 20260905003737 | 95 | 200 | 1.0 | 4.0 | 0.00 | 0.00 | 0.00 | 58 | 1012.2 |
| 20260905003306 | 95 | 200 | 3.0 | 4.0 | 0.00 | 0.00 | 0.00 | 58 | 1012.2 |
| 20260905003052 | 94 | 200 | 2.0 | 4.0 | 0.00 | 0.00 | 0.00 | 58 | 1009.0 |
| 20260905002728 | 95 | 200 | 2.0 | 3.0 | 0.00 | 0.00 | 0.00 | 58 | 1012.2 |
| 20260905002242 | 95 | 200 | 2.0 | 3.0 | 0.00 | 0.00 | 0.00 | 58 | 1012.1 |
| 20260905001752 | 95 | 200 | 0.0 | 2.0 | 0.00 | 0.00 | 0.00 | 59 | 1012.2 |
| 20260905001544 | 95 | 200 | 0.0 | 2.0 | 0.00 | 0.00 | 0.00 | 59 | 1009.1 |
| 20260905001244 | 95 | 200 | 1.0 | 3.0 | 0.00 | 0.00 | 0.00 | 59 | 1012.2 |
| 20260905000726 | 96 | 200 | 1.0 | 3.0 | 0.00 | 0.00 | 0.00 | 60 | 1012.1 |
| 20260905000241 | 96 | 200 | 2.0 | 2.0 | 0.00 | 0.00 | 0.00 | 59 | 1012.2 |
| 20260905000050 | 95 | 200 | 1.0 | 3.0 | 0.00 | 0.00 | 0.00 | 59 | 1009.1 |
| 20260904235747 | 96 | 200 | 1.0 | 3.0 | 0.00 | 0.00 | 0.00 | 58 | 1012.2 |
| 20260904235231 | 96 | 200 | 1.0 | 3.0 | 0.00 | 0.00 | 0.00 | 58 | 1012.2 |
| 20260904234744 | 96 | 200 | 1.0 | 4.0 | 0.00 | 0.00 | 0.00 | 57 | 1012.2 |
| 20260904234552 | 96 | 200 | 1.0 | 4.0 | 0.00 | 0.00 | 0.00 | 57 | 1009.1 |
| 20260904234229 | 97 | 200 | 2.0 | 4.0 | 0.00 | 0.00 | 0.00 | 56 | 1012.2 |
| 20260904233741 | 97 | 200 | 2.0 | 4.0 | 0.00 | 0.00 | 0.00 | 57 | 1012.2 |
| 20260904233224 | 97 | 200 | 1.0 | 5.0 | 0.00 | 0.00 | 0.00 | 56 | 1012.2 |
| 20260904233100 | 97 | 200 | 1.0 | 6.0 | 0.00 | 0.00 | 0.00 | 56 | 1009.1 |
| 20260904233002 | 97 | 200 | 2.0 | 6.0 | 0.00 | 0.00 | 0.00 | 56 | 1009.1 |
| 20260904232735 | 97 | 200 | 3.0 | 6.0 | 0.00 | 0.00 | 0.00 | 56 | 1012.2 |
| 20260904232247 | 98 | 200 | 4.0 | 7.0 | 0.00 | 0.00 | 0.00 | 56 | 1012.3 |
| 20260904231726 | 98 | 196 | 4.0 | 8.0 | 0.00 | 0.00 | 0.00 | 56 | 1012.3 |
| 20260904231510 | 97 | 204 | 5.0 | 8.0 | 0.00 | 0.00 | 0.00 | 56 | 1009.2 |
| 20260904231300 | 98 | 207 | 5.0 | 8.0 | 0.00 | 0.00 | 0.00 | 56 | 1012.4 |
| 20260904230723 | 98 | 175 | 5.0 | 7.0 | 0.00 | 0.00 | 0.00 | 57 | 1012.4 |
| 20260904230235 | 98 | 200 | 4.0 | 7.0 | 0.00 | 0.00 | 0.00 | 56 | 1012.3 |
| 20260904230054 | 97 | 199 | 4.0 | 7.0 | 0.00 | 0.00 | 0.00 | 57 | 1009.2 |
| 20260904225747 | 98 | 198 | 3.0 | 4.0 | 0.00 | 0.00 | 0.00 | 56 | 1012.3 |
| 20260904225230 | 98 | 199 | 2.0 | 4.0 | 0.00 | 0.00 | 0.00 | 55 | 1012.4 |
| 20260904224742 | 98 | 199 | 2.0 | 5.0 | 0.00 | 0.00 | 0.00 | 54 | 1012.3 |
| 20260904224555 | 97 | 199 | 1.0 | 5.0 | 0.00 | 0.00 | 0.00 | 55 | 1009.1 |
| 20260904224228 | 98 | 199 | 2.0 | 6.0 | 0.00 | 0.00 | 0.00 | 56 | 1012.2 |
| 20260904223734 | 98 | 199 | 3.0 | 7.0 | 0.00 | 0.00 | 0.00 | 55 | 1012.3 |
| 20260904223249 | 99 | 199 | 4.0 | 7.0 | 0.00 | 0.00 | 0.00 | 54 | 1012.3 |
| 20260904223020 | 98 | 209 | 4.0 | 7.0 | 0.00 | 0.00 | 0.00 | 54 | 1009.2 |
| 20260904222732 | 99 | 184 | 4.0 | 10.0 | 0.00 | 0.00 | 0.00 | 54 | 1012.3 |
| 20260904222245 | 99 | 202 | 5.0 | 11.0 | 0.00 | 0.00 | 0.00 | 54 | 1012.4 |
| 20260904221727 | 99 | 165 | 5.0 | 12.0 | 0.00 | 0.00 | 0.00 | 54 | 1012.3 |
| 20260904221524 | 98 | 213 | 4.0 | 9.0 | 0.00 | 0.00 | 0.00 | 53 | 1009.2 |
| 20260904221242 | 99 | 223 | 7.0 | 9.0 | 0.00 | 0.00 | 0.00 | 52 | 1012.3 |
| 20260904220722 | 100 | 204 | 5.0 | 11.0 | 0.00 | 0.00 | 0.00 | 51 | 1012.3 |
| 20260904220234 | 100 | 171 | 8.0 | 11.0 | 0.00 | 0.00 | 0.00 | 51 | 1012.3 |
| 20260904220032 | 100 | 175 | 8.0 | 11.0 | 0.00 | 0.00 | 0.00 | 51 | 1009.0 |
| 20260904215742 | 100 | 174 | 8.0 | 11.0 | 0.00 | 0.00 | 0.00 | 51 | 1012.2 |
| 20260904215226 | 100 | 200 | 7.0 | 12.0 | 0.00 | 0.00 | 0.00 | 53 | 1012.2 |
| 20260904214738 | 99 | 184 | 9.0 | 12.0 | 0.00 | 0.00 | 0.00 | 51 | 1012.2 |
| 20260904214535 | 99 | 206 | 7.0 | 12.0 | 0.00 | 0.00 | 0.00 | 51 | 1009.0 |
| 20260904214223 | 100 | 204 | 8.0 | 12.0 | 0.00 | 0.00 | 0.00 | 51 | 1012.2 |
| 20260904213735 | 100 | 199 | 8.0 | 12.0 | 0.00 | 0.00 | 0.00 | 53 | 1012.2 |
| 20260904213247 | 100 | 211 | 6.0 | 16.0 | 0.00 | 0.00 | 0.00 | 53 | 1012.2 |
| 20260904213044 | 99 | 202 | 8.0 | 16.0 | 0.00 | 0.00 | 0.00 | 52 | 1009.0 |
| 20260904212729 | 100 | 170 | 8.0 | 16.0 | 0.00 | 0.00 | 0.00 | 52 | 1012.2 |
| 20260904212241 | 100 | 176 | 8.0 | 10.0 | 0.00 | 0.00 | 0.00 | 54 | 1012.2 |
| 20260904211751 | 99 | 209 | 6.0 | 12.0 | 0.00 | 0.00 | 0.00 | 54 | 1012.2 |
| 20260904211531 | 99 | 211 | 7.0 | 12.0 | 0.00 | 0.00 | 0.00 | 54 | 1009.1 |
| 20260904211244 | 99 | 196 | 7.0 | 12.0 | 0.00 | 0.00 | 0.00 | 52 | 1012.3 |
| 20260904210728 | 99 | 219 | 5.0 | 10.0 | 0.00 | 0.00 | 0.00 | 52 | 1012.3 |
| 20260904210238 | 99 | 153 | 7.0 | 10.0 | 0.00 | 0.00 | 0.00 | 53 | 1012.3 |
| 20260904210046 | 99 | 166 | 7.0 | 10.0 | 0.00 | 0.00 | 0.00 | 53 | 1009.2 |
| 20260904205750 | 99 | 206 | 6.0 | 11.0 | 0.00 | 0.00 | 0.00 | 52 | 1012.3 |
| 20260904205241 | 99 | 202 | 7.0 | 12.0 | 0.00 | 0.00 | 0.00 | 51 | 1012.3 |
| 20260904204726 | 99 | 228 | 6.0 | 12.0 | 0.00 | 0.00 | 0.00 | 53 | 1012.3 |
| 20260904204521 | 99 | 202 | 7.0 | 13.0 | 0.00 | 0.00 | 0.00 | 50 | 1009.2 |
| 20260904204236 | 99 | 192 | 10.0 | 13.0 | 0.00 | 0.00 | 0.00 | 50 | 1012.3 |
| 20260904203746 | 100 | 204 | 7.0 | 14.0 | 0.00 | 0.00 | 0.00 | 52 | 1012.3 |
| 20260904203230 | 100 | 202 | 8.0 | 12.0 | 0.00 | 0.00 | 0.00 | 50 | 1012.4 |
| 20260904203027 | 100 | 193 | 7.0 | 12.0 | 0.00 | 0.00 | 0.00 | 51 | 1009.3 |
| 20260904202743 | 100 | 188 | 9.0 | 11.0 | 0.00 | 0.00 | 0.00 | 53 | 1012.5 |
| 20260904202227 | 100 | 213 | 6.0 | 11.0 | 0.00 | 0.00 | 0.00 | 51 | 1012.5 |
| 20260904201738 | 100 | 166 | 6.0 | 11.0 | 0.00 | 0.00 | 0.00 | 51 | 1012.5 |
| 20260904201521 | 99 | 202 | 9.0 | 12.0 | 0.00 | 0.00 | 0.00 | 51 | 1009.4 |
| 20260904201251 | 100 | 165 | 8.0 | 12.0 | 0.00 | 0.00 | 0.00 | 52 | 1012.5 |
| 20260904200731 | 100 | 198 | 7.0 | 11.0 | 0.00 | 0.00 | 0.00 | 52 | 1012.6 |
| 20260904200300 | 100 | 215 | 7.0 | 12.0 | 0.00 | 0.00 | 0.00 | 51 | 1012.6 |
| 20260904200007 | 100 | 200 | 8.0 | 12.0 | 0.00 | 0.00 | 0.00 | 52 | 1009.5 |
| 20260904195722 | 100 | 160 | 5.0 | 9.0 | 0.00 | 0.00 | 0.00 | 52 | 1012.6 |
| 20260904195232 | 100 | 202 | 6.0 | 14.0 | 0.00 | 0.00 | 0.00 | 52 | 1012.6 |
| 20260904194746 | 99 | 154 | 9.0 | 14.0 | 0.00 | 0.00 | 0.00 | 54 | 1012.7 |
| 20260904194514 | 99 | 205 | 6.0 | 10.0 | 0.00 | 0.00 | 0.00 | 53 | 1009.6 |
| 20260904194229 | 100 | 216 | 7.0 | 11.0 | 0.00 | 0.00 | 0.00 | 54 | 1012.7 |
| 20260904193739 | 100 | 205 | 4.0 | 11.0 | 0.00 | 0.00 | 0.00 | 52 | 1012.7 |
| 20260904193229 | 100 | 207 | 8.0 | 11.0 | 0.00 | 0.00 | 0.00 | 53 | 1012.7 |
| 20260904193054 | 99 | 221 | 7.0 | 12.0 | 0.00 | 0.00 | 0.00 | 52 | 1009.6 |
| 20260904192756 | 99 | 199 | 6.0 | 12.0 | 0.00 | 0.00 | 0.00 | 56 | 1012.7 |
| 20260904192246 | 99 | 174 | 8.0 | 12.0 | 0.00 | 0.00 | 0.00 | 55 | 1012.8 |
| 20260904191729 | 99 | 172 | 7.0 | 12.0 | 0.00 | 0.00 | 0.00 | 54 | 1012.7 |
| 20260904191532 | 98 | 157 | 6.0 | 11.0 | 0.00 | 0.00 | 0.00 | 54 | 1009.7 |
| 20260904191241 | 98 | 186 | 5.0 | 11.0 | 0.00 | 0.00 | 0.00 | 53 | 1012.9 |
| 20260904190810 | 98 | 201 | 7.0 | 11.0 | 0.00 | 0.00 | 0.00 | 57 | 1012.9 |
| 20260904190232 | 98 | 165 | 7.0 | 10.0 | 0.00 | 0.00 | 0.00 | 57 | 1013.0 |
| 20260904190005 | 97 | 158 | 5.0 | 10.0 | 0.00 | 0.00 | 0.00 | 54 | 1009.9 |
| 20260904185743 | 98 | 198 | 5.0 | 10.0 | 0.00 | 0.00 | 0.00 | 55 | 1013.0 |
| 20260904185249 | 98 | 195 | 7.0 | 10.0 | 0.00 | 0.00 | 0.00 | 54 | 1013.1 |
| 20260904184740 | 98 | 199 | 7.0 | 10.0 | 0.00 | 0.00 | 0.00 | 55 | 1013.1 |
| 20260904184533 | 97 | 160 | 6.0 | 10.0 | 0.00 | 0.00 | 0.00 | 54 | 1010.0 |
| 20260904184252 | 98 | 223 | 7.0 | 10.0 | 0.00 | 0.00 | 0.00 | 57 | 1013.2 |
| 20260904183733 | 97 | 169 | 8.0 | 11.0 | 0.00 | 0.00 | 0.00 | 56 | 1013.1 |
| 20260904183306 | 97 | 214 | 6.0 | 10.0 | 0.00 | 0.00 | 0.00 | 56 | 1013.1 |
| 20260904183009 | 97 | 170 | 5.0 | 10.0 | 0.00 | 0.00 | 0.00 | 56 | 1010.0 |
| 20260904182726 | 97 | 211 | 7.0 | 10.0 | 0.00 | 0.00 | 0.00 | 57 | 1013.1 |
| 20260904182233 | 97 | 207 | 6.0 | 10.0 | 0.00 | 0.00 | 0.00 | 55 | 1013.2 |
| 20260904181745 | 97 | 211 | 8.0 | 10.0 | 0.00 | 0.00 | 0.00 | 56 | 1013.2 |
| 20260904181515 | 97 | 224 | 5.0 | 11.0 | 0.00 | 0.00 | 0.00 | 57 | 1010.2 |
| 20260904181228 | 97 | 180 | 6.0 | 9.0 | 0.00 | 0.00 | 0.00 | 57 | 1013.2 |
| 20260904180800 | 97 | 217 | 6.0 | 10.0 | 0.00 | 0.00 | 0.00 | 56 | 1013.2 |
| 20260904180222 | 96 | 220 | 4.0 | 10.0 | 0.00 | 0.00 | 0.00 | 56 | 1013.3 |
| 20260904180054 | 96 | 242 | 4.0 | 10.0 | 0.00 | 0.00 | 0.00 | 55 | 1010.2 |
| 20260904175733 | 97 | 209 | 7.0 | 10.0 | 0.00 | 0.00 | 0.00 | 55 | 1013.2 |
| 20260904175246 | 97 | 210 | 4.0 | 11.0 | 0.00 | 0.00 | 0.00 | 56 | 1013.3 |
| 20260904174728 | 97 | 206 | 7.0 | 10.0 | 0.00 | 0.00 | 0.00 | 57 | 1013.3 |
| 20260904174607 | 96 | 228 | 3.0 | 9.0 | 0.00 | 0.00 | 0.00 | 58 | 1010.2 |
| 20260904174501 | 96 | 227 | 3.0 | 9.0 | 0.00 | 0.00 | 0.00 | 57 | 1010.3 |
| 20260904174256 | 96 | 204 | 4.0 | 9.0 | 0.00 | 0.00 | 0.00 | 56 | 1013.3 |
| 20260904173745 | 96 | 208 | 6.0 | 10.0 | 0.00 | 0.00 | 0.00 | 56 | 1013.3 |
| 20260904173234 | 96 | 205 | 6.0 | 10.0 | 0.00 | 0.00 | 0.00 | 58 | 1013.3 |
| 20260904173025 | 95 | 199 | 2.0 | 10.0 | 0.00 | 0.00 | 0.00 | 60 | 1010.3 |
| 20260904172744 | 95 | 177 | 5.0 | 10.0 | 0.00 | 0.00 | 0.00 | 58 | 1013.3 |
| 20260904172226 | 95 | 199 | 6.0 | 10.0 | 0.00 | 0.00 | 0.00 | 58 | 1013.3 |
| 20260904171738 | 94 | 194 | 8.0 | 10.0 | 0.00 | 0.00 | 0.00 | 61 | 1013.3 |
| 20260904171529 | 93 | 212 | 3.0 | 10.0 | 0.00 | 0.00 | 0.00 | 62 | 1010.3 |
| 20260904171246 | 93 | 146 | 5.0 | 10.0 | 0.00 | 0.00 | 0.00 | 61 | 1013.3 |
| 20260904170729 | 93 | 164 | 7.0 | 10.0 | 0.00 | 0.00 | 0.00 | 60 | 1013.3 |
| 20260904170240 | 93 | 164 | 5.0 | 10.0 | 0.00 | 0.00 | 0.00 | 62 | 1013.3 |
| 20260904170027 | 92 | 153 | 5.0 | 10.0 | 0.00 | 0.00 | 0.00 | 62 | 1010.3 |
| 20260904165723 | 93 | 158 | 4.0 | 10.0 | 0.00 | 0.00 | 0.00 | 60 | 1013.3 |
| 20260904165236 | 93 | 220 | 5.0 | 12.0 | 0.00 | 0.00 | 0.00 | 61 | 1013.3 |
| 20260904164747 | 93 | 143 | 5.0 | 11.0 | 0.00 | 0.00 | 0.00 | 62 | 1013.3 |
| 20260904164530 | 92 | 219 | 3.0 | 11.0 | 0.00 | 0.00 | 0.00 | 63 | 1010.3 |
| 20260904164231 | 92 | 234 | 8.0 | 11.0 | 0.00 | 0.00 | 0.00 | 62 | 1013.3 |
| 20260904163740 | 93 | 211 | 6.0 | 12.0 | 0.00 | 0.00 | 0.00 | 64 | 1013.2 |
| 20260904163223 | 92 | 200 | 5.0 | 10.0 | 0.00 | 0.00 | 0.00 | 64 | 1013.2 |